DW8769 Cullera ES current weather conditions

sailwx.info

Wind from 278

Air temperature 15.0° C
Dewpoint 4.7° C

Last reported at 2017-Nov-18 09:51 UTC.
Time now 2017-Nov-18 10:17 UTC

Location: N 39°10' W 000°14'.
View on Google Maps.

See reports from other nearby stations

  
Tides and Currents Weather Stations Pressure Air Temp Water Temp Dewpoint Dewpoint Depression Visibility Wind Speed Wind Dir Waves Ship Positions
date/time (UTC)wind fromknots sea level pressurealtimeterstation pressurevisibilityair tempwater tempwave heightnotes
2017-Nov-18 09:51 278 15.0
2017-Nov-18 09:36 287 14.4
2017-Nov-18 09:21 288 13.9
2017-Nov-18 09:06 345 13.9
2017-Nov-18 08:51 345 13.3
2017-Nov-18 08:36 345 12.2
2017-Nov-18 08:21 345 12.2
2017-Nov-18 08:06 345 12.2
2017-Nov-18 07:50 345 12.2
2017-Nov-18 07:35 292 11.7
2017-Nov-18 07:20 293 11.1
2017-Nov-18 07:05 293 10.0
2017-Nov-18 06:50 293 10.0
2017-Nov-18 06:35 293 10.6
2017-Nov-18 06:20 293 11.7
2017-Nov-18 06:05 293 11.1
2017-Nov-18 05:50 293 11.7
2017-Nov-18 05:35 293 12.2
2017-Nov-18 05:20 293 12.8
2017-Nov-18 05:05 292 13.3
2017-Nov-18 04:50 293 12.8
2017-Nov-18 04:35 293 12.8
2017-Nov-18 04:20 293 12.8
2017-Nov-18 04:05 293 12.8
2017-Nov-18 03:50 293 12.8
2017-Nov-18 03:41 293 12.2
2017-Nov-18 03:28 292 11.7
2017-Nov-18 03:05 293 11.7
2017-Nov-18 02:50 292 13.3
2017-Nov-18 02:35 292 13.9
2017-Nov-18 02:20 292 13.3
2017-Nov-18 02:05 292 12.8
2017-Nov-18 01:50 293 13.3
2017-Nov-18 01:35 293 13.9
2017-Nov-18 01:20 293 13.9
2017-Nov-18 01:05 293 13.9
2017-Nov-18 00:50 293 13.9
2017-Nov-18 00:35 293 13.9
2017-Nov-18 00:20 292 13.3
2017-Nov-18 00:05 293 12.8
2017-Nov-17 23:50 292 13.3
2017-Nov-17 23:35 293 13.3
2017-Nov-17 23:19 293 14.4
2017-Nov-17 23:04 293 15.0
2017-Nov-17 22:49 275 15.6
2017-Nov-17 22:34 336 2 gusting 9 15.0
2017-Nov-17 22:19 005 1 gusting 7 15.0
2017-Nov-17 22:04 022 14.4
2017-Nov-17 21:49 118 14.4
2017-Nov-17 21:34 118 13.9
2017-Nov-17 21:19 118 13.9
2017-Nov-17 21:04 119 13.9
2017-Nov-17 20:49 119 14.4
2017-Nov-17 20:34 119 14.4
2017-Nov-17 20:19 119 14.4
2017-Nov-17 20:04 118 15.0
2017-Nov-17 19:49 119 15.0
2017-Nov-17 19:34 119 15.0
2017-Nov-17 19:19 119 15.0
2017-Nov-17 19:04 119 15.0
2017-Nov-17 18:49 119 15.0
2017-Nov-17 18:34 119 15.0
2017-Nov-17 18:19 118 15.6
2017-Nov-17 18:04 118 15.6
2017-Nov-17 17:49 119 16.1
2017-Nov-17 17:34 119 16.1
2017-Nov-17 17:19 119 16.1
2017-Nov-17 17:04 119 16.1
2017-Nov-17 16:50 119 16.1
2017-Nov-17 16:34 118 16.7
2017-Nov-17 16:19 118 16.7
2017-Nov-17 16:04 119 16.7
2017-Nov-17 15:50 119 17.2
2017-Nov-17 15:34 119 17.2
2017-Nov-17 15:19 116 17.2
2017-Nov-17 15:04 090 17.2
2017-Nov-17 14:49 088 16.7
2017-Nov-17 14:34 098 16.7
2017-Nov-17 14:19 089 1 gusting 6 16.7
2017-Nov-17 14:04 107 1 gusting 6 16.1
2017-Nov-17 13:49 105 1 gusting 6 16.1
2017-Nov-17 13:34 104 0 gusting 6 16.1
2017-Nov-17 13:19 080 0 gusting 4 16.1
2017-Nov-17 13:04 073 1 gusting 4 16.1
2017-Nov-17 12:49 076 2 gusting 6 16.1
2017-Nov-17 12:34 082 0 gusting 6 15.6
2017-Nov-17 12:19 060 0 gusting 3 15.6
2017-Nov-17 12:04 076 0 gusting 3 15.6
2017-Nov-17 11:49 076 15.6
2017-Nov-17 11:34 076 1 gusting 4 15.6
2017-Nov-17 11:19 060 0 gusting 3 15.6
2017-Nov-17 11:04 054 15.6
2017-Nov-17 10:49 051 16.1
2017-Nov-17 10:34 052 15.6
2017-Nov-17 10:19 051 16.1
2017-Nov-17 10:03 336 15.0
2017-Nov-17 09:48 336 15.0
2017-Nov-17 09:33 336 13.9
2017-Nov-17 09:18 336 13.9
2017-Nov-17 09:03 336 13.9
2017-Nov-17 08:48 336 13.9
2017-Nov-17 08:33 336 14.4
2017-Nov-17 08:18 336 13.9
2017-Nov-17 08:03 336 13.3
2017-Nov-17 07:48 336 12.8
2017-Nov-17 07:33 336 11.7
2017-Nov-17 07:18 336 10.6
2017-Nov-17 07:03 336 10.0
2017-Nov-17 06:48 336 10.6
2017-Nov-17 06:33 336 10.6
2017-Nov-17 06:17 336 11.1
2017-Nov-17 06:02 336 10.6
2017-Nov-17 05:47 336 10.6
2017-Nov-17 05:32 336 10.6
2017-Nov-17 05:18 336 10.6
2017-Nov-17 05:02 336 10.6
2017-Nov-17 04:48 336 11.1
2017-Nov-17 04:32 336 11.1
2017-Nov-17 04:17 336 11.1
2017-Nov-17 04:02 336 11.7
2017-Nov-17 03:47 336 11.7
2017-Nov-17 03:38 336 11.1
2017-Nov-17 03:26 336 10.6
2017-Nov-17 03:02 336 11.1
2017-Nov-17 02:47 336 10.6
2017-Nov-17 02:32 336 11.1
2017-Nov-17 02:17 336 11.7
2017-Nov-17 02:02 336 11.7
2017-Nov-17 01:47 336 12.2
2017-Nov-17 01:32 336 12.2
2017-Nov-17 01:17 336 12.8
2017-Nov-17 01:02 336 12.8
2017-Nov-17 00:47 336 12.2
2017-Nov-17 00:33 336 12.2
2017-Nov-17 00:17 336 12.8
2017-Nov-17 00:02 336 12.8
2017-Nov-16 23:47 336 12.8
2017-Nov-16 23:32 336 13.3
2017-Nov-16 23:17 336 13.9
2017-Nov-16 23:02 327 13.9
2017-Nov-16 22:47 329 1 gusting 6 13.9
2017-Nov-16 22:32 338 2 gusting 6 14.4
2017-Nov-16 22:17 331 2 gusting 6 14.4
2017-Nov-16 22:02 338 3 gusting 7 13.9
2017-Nov-16 21:47 344 5 gusting 10 13.9
2017-Nov-16 21:32 348 4 gusting 10 13.9
2017-Nov-16 21:17 355 4 gusting 8 13.9
2017-Nov-16 21:02 314 14.4
2017-Nov-16 20:47 321 14.4
2017-Nov-16 20:32 355 13.9
2017-Nov-16 20:17 360 13.9
2017-Nov-16 20:02 293 13.9
2017-Nov-16 19:47 309 13.9
2017-Nov-16 19:32 309 13.9
2017-Nov-16 19:17 076 14.4
2017-Nov-16 19:02 076 14.4
2017-Nov-16 18:47 076 15.0
2017-Nov-16 18:32 076 15.0
2017-Nov-16 18:17 076 15.0
2017-Nov-16 18:02 076 15.0
2017-Nov-16 17:47 076 15.0
2017-Nov-16 17:32 076 15.0
2017-Nov-16 17:17 076 15.6
2017-Nov-16 17:02 076 16.1
2017-Nov-16 16:47 076 16.1
2017-Nov-16 16:32 076 16.1
2017-Nov-16 16:17 076 16.1
2017-Nov-16 16:02 061 16.7
2017-Nov-16 15:47 057 16.1
2017-Nov-16 15:32 072 2 gusting 6 16.1
2017-Nov-16 15:17 067 1 gusting 6 16.1
2017-Nov-16 15:02 071 0 gusting 6 16.1
2017-Nov-16 14:46 066 0 gusting 6 16.1
2017-Nov-16 14:32 071 1 gusting 6 16.1
2017-Nov-16 14:17 067 2 gusting 4 16.1
2017-Nov-16 14:02 065 0 gusting 6 16.1
2017-Nov-16 13:46 063 2 gusting 6 16.1
2017-Nov-16 13:32 088 4 gusting 6 16.1
2017-Nov-16 13:17 064 2 gusting 6 16.1
2017-Nov-16 13:01 063 1 gusting 5 16.1
2017-Nov-16 12:46 081 16.7
2017-Nov-16 12:31 077 16.7
2017-Nov-16 12:16 077 16.7
2017-Nov-16 12:01 072 0 gusting 3 16.7
2017-Nov-16 11:46 068 0 gusting 3 16.7
2017-Nov-16 11:31 342 16.1
2017-Nov-16 11:16 342 0 gusting 5 16.1
2017-Nov-16 11:01 311 1 gusting 7 15.6
2017-Nov-16 10:46 279 3 gusting 8 15.0
2017-Nov-16 10:31 350 6 gusting 10 14.4
2017-Nov-16 10:16 355 6 gusting 11 13.9
2017-Nov-16 10:01 249 3 gusting 10 14.4